Snowfall_Accumulation
0.0 0.0 0.0 0.0 0.0 0.0 0.0 0.0 0.0 0.0 0.0 0.0 0.0 0.0 0.0 0.0 0.0 0.0 0.0 0.0 0.0 0.4 0.0 0.0 0.0 0.0 0.0 0.0 0.5 0.0 0.3 0.4 0.7 2.0 1.1 0.2 0.1 0.0 0.0 0.0 0.0 0.0 0.1 0.1 0.3 0.7 0.1 0.0 0.0 0.0 0.0 0.0 0.0 0.0
0.0 0.0 0.0 0.0 0.0 0.0 0.0 0.0 0.0 0.0 0.0 0.0 0.0 0.0 0.0 0.0 0.0 0.0 0.0 0.0 0.0 0.2 0.3 0.0 0.0 0.0 0.0 0.0 0.0 0.0 0.0 0.0 0.3 0.7 0.5 0.1 0.1 0.0 0.0 0.0 0.0 0.0 0.0 0.0 0.0 0.0 0.0 0.0 0.0 0.0 0.0 0.0 0.0 0.0
0.0 0.0 0.0 0.0 0.0 0.0 0.0 0.0 0.0 0.0 0.0 0.0 0.0 0.0 0.0 0.0 0.0 0.0 0.0 0.0 0.0 0.9 0.0 0.0 0.0 0.0 0.0 0.0 0.0 0.2 0.0 0.0 0.0 0.0 0.6 0.8 0.2 0.0 0.1 0.0 0.0 0.0 0.0 0.0 0.0 0.0 0.0 0.0 0.0 0.0 0.0 0.0 0.0 0.0
0.0 0.0 0.0 0.0 0.0 0.0 0.0 0.0 0.0 0.0 0.0 0.0 0.0 0.0 0.0 0.0 0.0 0.0 0.0 0.0 0.0 0.8 4.0 0.3 0.0 0.0 0.0 0.0 0.0 0.0 0.0 0.0 0.0 0.0 1.8 2.9 1.9 0.0 0.0 0.0 0.0 0.0 0.0 0.0 0.0 0.0 0.0 0.0 0.0 0.0 0.0 0.0 0.0 0.0
0.0 0.0 0.0 0.0 0.0 0.0 0.0 0.0 0.0 0.0 0.0 0.0 0.0 0.0 0.0 0.0 0.0 0.0 0.0 0.0 0.0 0.1 3.2 0.5 0.0 0.0 0.0 0.0 0.0 0.0 0.0 0.0 1.6 2.8 2.9 1.7 0.0 0.5 0.0 0.3 0.3 0.0 0.0 0.0 0.0 0.0 0.0 0.0 0.0 0.0 0.0 0.0 0.0 0.0
0.0 0.0 0.0 0.0 0.0 0.0 0.0 0.0 0.0 0.0 0.0 0.0 0.0 0.0 0.0 0.0 0.0 0.0 0.2 0.0 0.0 0.0 6.4 6.5 0.0 0.0 0.0 0.0 0.0 0.0 0.0 0.0 1.3 2.3 2.1 0.0 0.0 0.0 1.6 0.0 0.0 0.0 0.0 0.0 0.0 0.0 0.0 0.0 0.0 0.0 0.0 0.0 0.0 0.0
0.0 0.0 0.0 0.0 0.0 0.0 0.0 0.0 0.0 0.0 0.0 0.0 0.0 0.0 0.0 0.0 0.0 1.6 0.0 0.0 0.0 0.0 7.4 7.5 4.2 0.4 0.0 0.0 0.0 0.0 0.0 0.0 1.2 2.5 1.4 0.1 0.0 0.7 1.5 0.2 0.0 0.0 0.0 0.0 0.0 0.0 0.0 0.0 0.0 0.0 0.0 0.0 0.0 0.0
0.0 0.0 0.0 0.0 0.0 0.0 0.0 0.0 0.0 0.0 0.0 0.0 0.0 0.0 0.0 0.0 0.0 0.0 0.0 0.0 0.0 0.1 5.0 15.3 9.0 2.3 0.3 2.7 2.4 0.0 1.8 1.9 1.4 1.3 0.2 0.0 0.1 1.4 1.9 0.0 0.0 0.0 0.0 0.0 0.0 0.0 0.0 0.0 0.0 0.0 0.0 0.0 0.0 0.0
0.0 0.0 0.0 0.0 0.0 0.0 0.0 0.0 0.0 0.0 0.0 0.0 0.0 0.0 0.0 0.0 0.0 0.0 0.0 0.0 0.0 0.1 12.3 8.8 7.7 4.6 0.2 1.2 1.4 2.0 1.1 6.0 0.7 1.6 0.2 0.1 0.6 2.7 0.0 0.1 0.1 0.0 0.1 0.0 0.0 0.0 0.0 0.0 0.0 0.0 0.0 0.0 0.0 0.0
0.0 0.0 0.0 0.0 0.0 0.0 0.0 0.0 0.0 0.0 0.0 0.0 0.0 0.4 7.2 0.0 0.0 0.0 0.0 4.5 5.3 4.3 5.8 7.2 3.0 5.7 1.2 1.6 2.3 2.7 2.6 3.0 4.3 0.3 0.0 0.9 0.0 0.0 0.0 0.0 0.0 0.0 0.0 0.1 0.0 1.8 0.9 0.7 0.0 0.0 0.0 0.0 0.0 0.0
0.0 0.0 0.0 0.0 0.0 0.0 0.0 0.0 0.0 0.0 0.0 0.0 4.6 7.6 0.0 0.0 0.0 2.7 24.9 21.7 14.0 10.7 2.7 2.1 2.9 3.0 0.0 4.4 3.3 1.6 6.7 3.0 4.4 3.1 0.9 2.1 1.4 0.6 0.0 0.1 0.0 0.0 0.0 0.0 0.0 0.0 0.2 0.7 1.0 0.4 0.2 0.1 0.0 0.0
0.0 0.0 0.0 0.0 0.0 0.0 0.0 0.0 0.0 0.0 0.0 0.0 0.0 0.0 0.7 5.8 25.8 31.7 21.6 9.0 3.3 2.0 1.0 1.5 0.7 0.3 0.9 0.1 2.9 2.4 4.4 3.5 4.4 3.2 3.8 2.9 0.7 0.1 0.5 0.6 0.3 0.0 0.0 0.1 0.0 0.0 0.2 0.0 0.5 0.8 0.4 0.8 0.9 0.8
0.0 0.0 0.0 0.0 0.0 0.0 0.0 0.0 0.0 0.0 0.0 0.2 7.9 27.0 29.7 31.4 37.7 23.7 10.9 6.5 2.5 2.3 2.1 1.5 1.6 0.8 2.0 1.9 3.0 2.3 2.9 1.6 0.9 4.2 4.2 1.5 0.1 0.1 0.0 0.1 0.3 1.4 1.4 0.7 0.4 0.3 0.4 0.4 0.2 0.6 0.6 0.4 0.6 0.4
0.0 0.0 0.0 0.0 0.0 0.0 0.0 0.0 0.0 0.0 0.4 6.9 29.4 41.0 29.7 30.0 10.3 5.3 3.7 3.1 1.4 1.0 1.0 1.2 1.9 2.4 2.1 4.6 5.6 5.1 2.5 0.7 3.3 2.4 1.9 0.1 0.1 0.0 0.0 0.0 0.0 0.0 0.6 1.2 2.0 1.4 1.3 1.5 1.0 1.1 0.7 0.3 0.0 0.0
0.0 0.0 0.0 0.0 0.0 0.0 0.0 0.0 0.0 0.0 1.1 22.4 23.0 25.1 14.1 5.1 4.4 3.2 2.4 1.4 0.7 0.9 1.9 3.1 4.4 2.6 4.1 8.6 4.9 2.5 3.0 3.8 4.2 2.6 1.2 0.5 0.2 0.0 0.0 0.1 0.0 0.0 0.0 0.0 0.2 0.5 1.7 1.6 2.0 1.4 0.7 0.6 0.1 0.0
0.0 0.0 0.0 0.0 0.0 0.0 0.0 0.0 0.0 0.1 11.8 21.8 18.6 9.4 1.9 1.8 2.6 1.9 2.1 2.4 1.3 1.5 2.4 3.8 7.6 7.6 6.0 5.0 2.7 0.4 1.5 2.5 2.8 1.0 0.0 0.0 0.0 0.0 0.1 0.0 0.1 0.0 0.0 0.0 0.0 0.0 0.4 0.5 1.1 1.1 0.2 0.5 0.5 0.0
0.0 1.3 0.0 0.0 0.0 0.0 0.0 0.0 0.0 21.1 22.3 22.7 11.4 2.5 2.4 2.4 4.2 3.7 3.8 4.1 3.2 5.6 9.3 8.4 10.3 4.1 3.3 3.0 1.7 0.1 0.2 0.2 0.2 0.0 0.0 0.0 0.1 0.0 0.3 0.0 0.0 0.0 0.0 0.0 0.2 0.2 0.7 0.3 1.3 1.9 1.2 0.5 0.5 0.7
0.2 0.0 0.0 0.0 0.0 0.0 0.9 3.1 12.3 26.5 28.5 9.2 4.3 2.5 2.3 3.2 3.9 4.6 5.7 5.3 8.3 11.1 11.9 15.6 7.9 7.0 2.3 0.4 0.1 0.1 0.0 0.2 0.3 0.3 0.1 0.0 0.0 0.0 0.3 0.0 0.1 0.2 0.9 1.7 1.7 1.7 1.4 1.3 1.7 1.4 0.3 0.5 0.7 0.7
0.4 0.0 0.0 0.0 0.0 1.9 24.9 26.1 16.3 25.6 7.1 2.7 2.4 2.6 2.8 3.3 4.0 5.1 5.9 6.0 6.0 4.7 6.9 13.4 15.4 5.9 1.1 0.1 0.1 0.1 0.3 1.2 1.4 0.9 0.5 0.3 0.0 0.0 0.1 0.6 0.6 0.1 0.4 1.2 0.8 1.0 0.6 0.2 0.0 0.5 0.6 0.2 0.7 0.4
0.0 0.0 0.0 0.0 0.0 15.5 33.5 28.2 11.6 8.3 4.5 2.6 3.0 3.7 3.1 3.3 4.1 5.1 7.2 8.2 7.5 7.5 14.1 13.6 3.5 2.5 1.9 1.3 0.9 0.7 0.4 0.5 0.7 0.6 0.6 0.5 0.4 0.2 0.2 0.0 0.1 0.3 0.2 0.5 0.3 0.1 0.6 0.3 0.1 0.6 0.5 0.3 0.7 0.6
1.4 7.3 2.4 0.0 5.3 20.2 20.8 17.6 9.7 5.0 2.9 3.7 4.0 2.6 3.8 3.4 4.3 6.2 7.1 6.7 10.2 13.3 8.5 4.9 4.0 3.8 2.8 2.2 1.3 1.0 0.8 0.5 0.7 0.6 0.4 0.2 0.3 0.3 0.4 0.4 0.2 0.2 0.1 0.1 0.1 0.0 0.3 0.2 0.1 0.0 0.4 0.2 0.1 0.9
9.5 3.9 13.7 9.0 36.5 36.3 24.9 9.4 5.3 3.8 3.1 4.5 4.3 3.0 4.6 5.7 6.5 7.1 6.8 7.8 11.1 6.9 5.5 5.8 5.9 5.2 3.7 3.3 4.0 2.8 2.5 1.2 1.0 0.7 0.3 0.0 0.0 0.1 0.1 0.1 0.0 0.0 0.0 0.0 0.0 0.0 0.0 0.0 0.2 0.0 0.4 0.4 0.1 1.1
3.4 9.2 35.8 38.0 45.5 40.6 25.0 7.5 4.5 4.7 5.0 6.2 4.7 5.7 6.1 5.7 5.6 5.0 7.7 7.6 6.6 6.7 5.9 5.7 6.0 7.3 5.8 5.5 4.1 3.5 2.7 1.4 0.8 0.5 0.3 0.0 0.0 0.0 0.0 0.0 0.0 0.0 0.0 0.0 0.0 0.0 0.0 0.0 0.0 0.0 0.0 0.5 0.3 0.1
1.4 36.0 50.2 48.9 33.9 30.6 18.1 16.5 11.0 6.9 7.8 7.2 6.5 5.0 4.3 3.1 4.8 5.7 6.4 5.1 5.5 5.5 4.6 4.8 4.2 4.0 3.1 3.2 3.4 3.8 3.8 2.4 0.8 0.1 0.7 0.3 0.0 0.0 0.0 0.0 0.0 0.0 0.0 0.0 0.0 0.0 0.0 0.0 0.0 0.0 0.0 0.0 0.0 0.1
58.3 72.4 50.4 51.4 27.9 17.6 10.9 9.2 7.0 5.8 5.1 4.8 3.2 3.6 3.0 3.2 4.6 6.2 4.7 4.8 4.5 4.5 4.7 4.2 3.2 2.7 2.6 2.5 3.0 2.6 2.1 1.9 2.6 2.5 0.3 1.7 0.8 0.2 0.0 0.0 0.2 0.1 0.0 0.0 0.0 0.0 0.0 0.0 0.0 0.0 0.0 0.0 0.1 0.2
68.5 38.9 28.5 13.0 8.6 3.5 2.4 2.3 2.4 2.1 1.2 2.6 1.9 1.6 1.0 4.0 6.7 5.4 3.1 3.9 3.7 3.4 3.6 3.2 2.6 2.0 1.7 1.5 1.6 2.7 2.7 2.2 1.4 1.6 0.5 2.0 1.8 2.4 2.0 1.5 0.9 0.4 0.0 0.0 0.3 0.3 0.1 0.0 0.0 0.0 0.0 0.1 0.0 0.4
56.0 31.2 11.6 2.6 1.8 1.7 1.6 1.7 1.6 1.9 2.8 3.4 2.3 2.1 2.8 7.9 2.8 2.4 3.0 3.4 3.2 2.4 2.0 1.5 1.6 2.0 1.6 1.2 0.7 0.6 1.4 1.8 1.8 0.8 0.4 1.8 1.6 1.2 0.7 1.8 1.4 0.9 0.6 1.1 1.0 0.9 0.9 0.5 0.3 0.2 0.5 0.3 0.3 0.3
18.4 8.4 4.5 5.0 5.1 4.0 4.7 3.3 2.7 2.1 2.7 2.0 3.2 3.3 4.7 3.1 1.6 1.9 2.4 2.3 1.7 1.7 2.1 2.0 1.8 1.1 1.9 1.8 1.5 1.6 2.4 2.4 2.1 1.1 2.2 2.4 2.5 1.9 1.2 1.1 2.3 2.4 2.3 1.7 1.2 1.7 1.9 1.5 1.5 1.7 1.4 0.8 0.9 0.7
6.2 3.0 2.7 3.9 3.8 3.3 3.1 2.4 2.3 1.6 1.1 1.5 1.2 0.8 0.6 0.5 1.5 2.0 1.5 1.2 0.8 0.9 1.4 2.9 2.3 2.4 2.5 2.0 1.5 2.2 2.1 2.4 2.3 2.5 2.2 2.0 1.6 1.8 1.8 3.2 3.9 5.0 4.9 4.5 3.0 2.5 2.3 2.4 3.8 4.1 3.6 3.6 3.4 3.4
1.2 0.7 1.2 1.5 2.6 2.7 2.2 2.9 3.1 3.3 3.4 2.9 1.5 1.1 0.9 0.9 1.7 1.2 0.9 0.7 0.2 0.1 0.3 0.3 0.2 0.4 0.6 0.1 0.8 1.9 2.1 1.4 2.0 1.6 1.5 1.3 1.4 1.7 3.1 3.7 4.9 5.5 5.8 5.2 6.5 7.2 5.1 5.8 6.7 7.1 7.0 6.5 5.9 5.0
0.0 0.0 0.1 0.2 0.5 1.1 1.7 1.0 1.4 1.1 2.6 2.7 2.5 2.6 2.4 2.1 2.3 1.4 0.3 0.0 0.1 0.3 0.7 0.6 0.4 0.6 0.8 1.2 1.7 1.3 1.5 1.1 1.2 2.0 2.1 2.5 2.3 3.1 3.0 4.6 4.8 5.7 6.4 6.8 6.3 6.2 5.7 5.6 5.2 5.0 5.1 4.6 4.2 3.9
0.0 0.1 0.0 0.5 0.8 1.6 1.4 0.7 0.4 0.0 0.2 0.6 1.8 2.0 2.5 2.1 1.0 0.4 0.2 0.1 0.2 0.6 1.2 1.4 1.7 2.1 2.3 2.3 2.5 2.1 2.5 3.0 1.8 2.7 2.6 2.7 3.1 2.8 4.2 4.9 6.0 6.3 7.1 7.5 6.9 6.4 6.5 6.5 7.0 6.5 6.7 6.7 6.2 5.7
2.3 1.1 0.9 0.5 2.2 2.1 1.7 1.0 1.0 0.8 0.7 0.5 0.8 1.4 1.7 1.1 0.8 0.7 0.9 0.8 1.4 1.7 1.5 2.5 2.9 3.4 3.9 3.6 3.5 4.7 4.8 3.4 4.3 4.2 4.7 4.6 4.2 4.7 6.0 6.2 7.4 7.3 7.1 7.2 7.5 8.1 8.5 8.2 7.8 7.1 6.7 6.5 6.3 6.2